Rbgn^[z[y[W
メイン
   新天体発見情報
     Comet C/2024 G5 (Leonard)
投稿するにはまず登録を

スレッド表示 | 新しいものから 前のトピック | 次のトピック | 下へ
投稿者 スレッド
佐藤裕久
投稿日時: 2024-5-24 14:37
モデレータ
登録日: 2005-6-12
居住地: 日本
投稿: 2523
オンライン
Comet C/2024 G5 (Leonard)

G. J. Leonardの通報によると、4月5日、彼は、Mt Lemmonサーベイの1.5-m 反射望遠鏡で得たCCD画像
から彗星を発見した。4枚の30-秒加算画像は、中程度に集光した8"のコマが見え、p.a. 90°に6"のまっ
すぐな尾がある。
小惑星センターのPCCP webpageに公表後、佐藤英貴氏(東京都文京区,4月10.2日UT、120-秒露出8枚の
スタック, 0.43-m f/6.8 アストログラフ, Utah Desert Remote 天文台, Beryl Junction 近郊, ユタ
州, 米国, 遠隔操作)の観測では、恒星状にしか見えなかった、3".8の円形範囲で測定した光度は20.3等
であった。
K. Wierzchos (4月21.2日、Mt Lemmon 1.5-m 反射望遠鏡, 4枚の30-秒のフィルターなし露出, 集光した
6" のコマが見えるが尾はない)とC. Lejoly (Spacewatch)のCCD位置観測者によって彗星状と観測された。

彗星機能の報告は次のとおり、

OC   Date        Reporter           Coma    Tail    PA          Exposures
291  2024-04-08  C. Lejoly          5".8
G96  2024-04-21  K. Wierzchos       6"                             4x30s

発見位置は次のとおり、

     2024 UT             R.A. (2000) Decl.       Mag.   Observer
     Apr.  5.13126    7 44 13.51   +29 28 22.6   20.8   Leonard
           5.13876    7 44 13.61   +29 28 17.4   20.9     "
           5.14407    7 44 13.65   +29 28 12.1   20.3     "
           5.14940    7 44 13.67   +29 28 07.5            "
           5.15838    7 44 13.84   +29 28 00.3   19.9     "
           5.16979    7 44 13.90   +29 27 51.0   19.9     "
           5.18147    7 44 14.05   +29 27 41.5   19.9     "
           5.19316    7 44 14.18   +29 27 31.7   20.3     "

MPCの楕円軌道要素、位置推算表は次のとおり、

Orbital elements:
    C/2024 G5 (Leonard)                                                         
Epoch 2024 Mar. 31.0 TT = JDT 2460400.5                                         
T 2024 Sept. 6.98478 TT                                 Rudenko                 
q   2.9529125            (2000.0)            P               Q                  
z  +0.0018833      Peri.  209.55729     -0.84680943     -0.02523943             
 +/-0.0000138      Node   316.39882     +0.49259955     -0.41401957             
e   0.9944387      Incl.   50.39019     -0.20064761     -0.90991800             
From 92 observations 2023 Dec. 15-2024 May 5, mean residual 0".4.               
                                                                                
Ephemeris:
Date    TT    R. A. (2000) Decl.     Delta      r    Elong.  Phase   m1
2024 04 08    07 44 51.2 +28 49 03   3.0784  3.3129    94.6    17.5  20.6
...
2024 04 23    07 50 47.6 +25 27 10   3.2346  3.2494    81.9    17.8  20.7
...
2024 05 01    07 55 31.8 +23 42 01   3.3181  3.2176    75.5    17.6  20.7
...
2024 05 07    07 59 40.8 +22 24 02   3.3796  3.1948    70.9    17.4  20.7
2024 05 08    08 00 25.0 +22 11 06   3.3897  3.1911    70.1    17.3  20.7
2024 05 09    08 01 10.0 +21 58 10   3.3998  3.1874    69.4    17.2  20.7
...
2024 05 15    08 05 54.7 +20 40 49   3.4590  3.1657    64.9    16.8  20.7
...
2024 05 23    08 12 49.5 +18 57 57   3.5343  3.1383    59.2    16.1  20.7
...
2024 06 07    08 27 16.1 +15 44 11   3.6614  3.0914    49.0    14.3  20.7

(MPEC 2024-J126、CBET 5391)

スレッド表示 | 新しいものから 前のトピック | 次のトピック | トップ

投稿するにはまず登録を
 
© 1999 Tsutomu Seki.